SWA4280 KMCO-KSTL

Flight info

Callsign SWA4280
Flight time 1h 59m
Altitude 38000
Route RDSOX1 JFRYS PATOY Q116 VLKNN GETME J151 VISQA BOOSH3
Aircraft B38M/M-SADE2E3GHIJ4J7P2RWZ/LB1D1

Departure

Time 2026-04-24 20:32
Airport Orlando International Airport (KMCO)

Arrival

Time 2026-04-24 22:32
Airport St. Louis Lambert International Airport (KSTL)
Time Latitude Longitude Altitude Speed Heading
2026-04-24 20:10 28.43583 -81.30377 97 ft 0 kts 136°
2026-04-24 20:20 28.43585 -81.30379 97 ft 3 kts 136°
2026-04-24 20:21 28.43604 -81.30399 98 ft 4 kts 127°
2026-04-24 20:21 28.43607 -81.30417 95 ft 3 kts 68°
2026-04-24 20:21 28.43598 -81.30441 95 ft 2 kts 68°
2026-04-24 20:21 28.43598 -81.30442 95 ft 0 kts 68°
2026-04-24 20:27 28.43603 -81.30431 98 ft 4 kts 60°
2026-04-24 20:27 28.43637 -81.30387 99 ft 12 kts 49°
2026-04-24 20:27 28.43694 -81.30304 98 ft 15 kts 52°
2026-04-24 20:27 28.43762 -81.30206 97 ft 17 kts 52°
2026-04-24 20:28 28.43834 -81.30094 100 ft 14 kts 71°
2026-04-24 20:28 28.43820 -81.29993 98 ft 15 kts 88°
2026-04-24 20:28 28.43788 -81.29843 98 ft 29 kts 146°
2026-04-24 20:28 28.43572 -81.29801 98 ft 24 kts 160°
2026-04-24 20:29 28.43549 -81.29747 99 ft 12 kts 88°
2026-04-24 20:29 28.43550 -81.29704 99 ft 0 kts 91°
2026-04-24 20:29 28.43550 -81.29698 99 ft 3 kts 91°
2026-04-24 20:29 28.43548 -81.29620 100 ft 15 kts 101°
2026-04-24 20:30 28.43500 -81.29587 100 ft 6 kts 180°
2026-04-24 20:30 28.43498 -81.29587 102 ft 0 kts 180°
2026-04-24 20:31 28.43493 -81.29587 100 ft 4 kts 180°
2026-04-24 20:31 28.43292 -81.29586 101 ft 66 kts 179°
2026-04-24 20:32 28.42591 -81.29576 98 ft 133 kts 179°
2026-04-24 20:32 28.41521 -81.29592 314 ft 165 kts 183°
2026-04-24 20:32 28.40333 -81.29550 977 ft 172 kts 176°
2026-04-24 20:32 28.39162 -81.29696 1766 ft 170 kts 210°
2026-04-24 20:33 28.38305 -81.30659 2372 ft 182 kts 230°
2026-04-24 20:33 28.37453 -81.31829 2819 ft 205 kts 229°
2026-04-24 20:33 28.36481 -81.33150 3265 ft 230 kts 230°
2026-04-24 20:33 28.35601 -81.34752 3773 ft 252 kts 252°
2026-04-24 20:34 28.35479 -81.36793 4353 ft 269 kts 278°
2026-04-24 20:34 28.35762 -81.38902 5274 ft 270 kts 277°
2026-04-24 20:34 28.36030 -81.41021 6239 ft 271 kts 278°
2026-04-24 20:34 28.36303 -81.43142 7176 ft 272 kts 278°
2026-04-24 20:35 28.36581 -81.45283 8008 ft 276 kts 278°
2026-04-24 20:35 28.36861 -81.47444 8905 ft 278 kts 278°
2026-04-24 20:35 28.37144 -81.49624 9810 ft 279 kts 279°
2026-04-24 20:35 28.37427 -81.51803 10472 ft 289 kts 279°
2026-04-24 20:36 28.37730 -81.54138 10841 ft 309 kts 279°
2026-04-24 20:36 28.38049 -81.56602 11369 ft 322 kts 279°
2026-04-24 20:36 28.38376 -81.59133 12151 ft 325 kts 279°
2026-04-24 20:36 28.38706 -81.61683 12979 ft 329 kts 279°
2026-04-24 20:37 28.39040 -81.64277 13808 ft 333 kts 279°
2026-04-24 20:37 28.39377 -81.66891 14543 ft 337 kts 279°
2026-04-24 20:37 28.39718 -81.69536 15361 ft 339 kts 279°
2026-04-24 20:37 28.40060 -81.72202 16133 ft 343 kts 279°
2026-04-24 20:38 28.40405 -81.74898 16890 ft 347 kts 279°
2026-04-24 20:38 28.40754 -81.77622 17627 ft 350 kts 279°
2026-04-24 20:38 28.41105 -81.80372 18348 ft 354 kts 279°
2026-04-24 20:38 28.41460 -81.83152 18959 ft 357 kts 279°
2026-04-24 20:39 28.41817 -81.85959 19586 ft 360 kts 279°
2026-04-24 20:39 28.42177 -81.88789 20207 ft 363 kts 279°
2026-04-24 20:39 28.42528 -81.91644 20816 ft 367 kts 276°
2026-04-24 20:39 28.42568 -81.94557 21402 ft 371 kts 271°
2026-04-24 20:40 28.42590 -81.97493 21969 ft 374 kts 272°
2026-04-24 20:40 28.42629 -82.00461 22553 ft 377 kts 272°
2026-04-24 20:40 28.42677 -82.03457 23127 ft 380 kts 272°
2026-04-24 20:40 28.42731 -82.06474 23666 ft 384 kts 272°
2026-04-24 20:41 28.42786 -82.09515 24142 ft 386 kts 272°
2026-04-24 20:41 28.42842 -82.12573 24627 ft 389 kts 272°
2026-04-24 20:41 28.42898 -82.15651 25102 ft 391 kts 272°
2026-04-24 20:41 28.42954 -82.18755 25572 ft 394 kts 272°
2026-04-24 20:42 28.43010 -82.21874 26036 ft 396 kts 272°
2026-04-24 20:42 28.43064 -82.24971 26496 ft 399 kts 272°
2026-04-24 20:42 28.43118 -82.28126 26948 ft 401 kts 272°
2026-04-24 20:42 28.43168 -82.31039 27353 ft 403 kts 272°
2026-04-24 20:43 28.43222 -82.34238 27790 ft 406 kts 272°
2026-04-24 20:43 28.43275 -82.37454 28217 ft 408 kts 272°
2026-04-24 20:43 28.43330 -82.40690 28644 ft 411 kts 274°
2026-04-24 20:43 28.43719 -82.43896 29105 ft 408 kts 288°
2026-04-24 20:44 28.44894 -82.46821 29534 ft 409 kts 303°
2026-04-24 20:44 28.46763 -82.49269 29899 ft 414 kts 318°
2026-04-24 20:44 28.49120 -82.51182 30161 ft 420 kts 325°
2026-04-24 20:44 28.51592 -82.52966 30500 ft 422 kts 326°
2026-04-24 20:45 28.54104 -82.54714 30872 ft 424 kts 327°
2026-04-24 20:45 28.56635 -82.56444 31225 ft 425 kts 327°
2026-04-24 20:45 28.59187 -82.58169 31574 ft 427 kts 327°
2026-04-24 20:45 28.61757 -82.59896 31915 ft 429 kts 327°
2026-04-24 20:46 28.64331 -82.61623 32263 ft 430 kts 327°
2026-04-24 20:46 28.66914 -82.63356 32612 ft 431 kts 327°
2026-04-24 20:46 28.69465 -82.65068 33051 ft 430 kts 327°
2026-04-24 20:46 28.72042 -82.66798 33565 ft 428 kts 327°
2026-04-24 20:47 28.74597 -82.68515 34063 ft 426 kts 327°
2026-04-24 20:47 28.77145 -82.70227 34489 ft 424 kts 327°
2026-04-24 20:47 28.79696 -82.71942 34722 ft 427 kts 327°
2026-04-24 20:47 28.82251 -82.73662 35044 ft 427 kts 327°
2026-04-24 20:48 28.84803 -82.75380 35396 ft 426 kts 327°
2026-04-24 20:48 28.87352 -82.77098 35740 ft 425 kts 327°
2026-04-24 20:48 28.89895 -82.78813 36065 ft 424 kts 327°
2026-04-24 20:48 28.92426 -82.80520 36426 ft 422 kts 327°
2026-04-24 20:49 28.94954 -82.82225 36739 ft 421 kts 327°
2026-04-24 20:49 28.97477 -82.83930 37026 ft 421 kts 327°
2026-04-24 20:49 28.99998 -82.85633 37309 ft 421 kts 327°
2026-04-24 20:49 29.02520 -82.87337 37583 ft 421 kts 327°
2026-04-24 20:50 29.05036 -82.89039 37844 ft 420 kts 327°
2026-04-24 20:50 29.07465 -82.90899 37951 ft 419 kts 322°
2026-04-24 20:50 29.12194 -82.94787 37967 ft 418 kts 323°
2026-04-24 20:51 29.16914 -82.98607 37967 ft 418 kts 323°
2026-04-24 20:51 29.21666 -83.02448 37967 ft 418 kts 323°
2026-04-24 20:52 29.26413 -83.06302 37968 ft 418 kts 322°
2026-04-24 20:52 29.31137 -83.10177 37971 ft 418 kts 322°
2026-04-24 20:53 29.35866 -83.14057 37971 ft 418 kts 322°
2026-04-24 20:53 29.40599 -83.17945 37966 ft 419 kts 322°
2026-04-24 20:54 29.45345 -83.21847 37971 ft 420 kts 322°
2026-04-24 20:54 29.50091 -83.25755 37971 ft 420 kts 322°
2026-04-24 20:55 29.54839 -83.29669 37965 ft 420 kts 322°
2026-04-24 20:55 29.59555 -83.33561 37969 ft 420 kts 322°
2026-04-24 20:56 29.64301 -83.37482 37968 ft 420 kts 322°
2026-04-24 20:56 29.69041 -83.41403 37976 ft 420 kts 322°
2026-04-24 20:57 29.73781 -83.45329 37974 ft 420 kts 322°
2026-04-24 20:57 29.78524 -83.49262 37972 ft 420 kts 322°
2026-04-24 20:58 29.82463 -83.52531 37971 ft 420 kts 322°
2026-04-24 20:58 29.87212 -83.56476 37975 ft 422 kts 322°
2026-04-24 20:59 29.91972 -83.60434 37970 ft 422 kts 322°
2026-04-24 20:59 29.96727 -83.64392 37986 ft 422 kts 322°
2026-04-24 21:00 30.01485 -83.68358 37972 ft 422 kts 322°
2026-04-24 21:00 30.06238 -83.72324 37971 ft 422 kts 322°
2026-04-24 21:01 30.10993 -83.76297 37965 ft 422 kts 322°
2026-04-24 21:01 30.15743 -83.80270 37964 ft 422 kts 322°
2026-04-24 21:02 30.20468 -83.84231 37965 ft 422 kts 322°
2026-04-24 21:02 30.25219 -83.88218 37967 ft 422 kts 322°
2026-04-24 21:03 30.29977 -83.92216 37955 ft 423 kts 322°
2026-04-24 21:03 30.34708 -83.96197 37964 ft 424 kts 322°
2026-04-24 21:04 30.39479 -84.00216 37963 ft 424 kts 322°
2026-04-24 21:04 30.44251 -84.04241 37956 ft 424 kts 322°
2026-04-24 21:05 30.49021 -84.08269 37953 ft 424 kts 322°
2026-04-24 21:05 30.53795 -84.12305 37950 ft 424 kts 322°
2026-04-24 21:06 30.58557 -84.16337 37954 ft 424 kts 322°
2026-04-24 21:06 30.63330 -84.20383 37951 ft 424 kts 322°
2026-04-24 21:07 30.68099 -84.24430 37950 ft 424 kts 322°
2026-04-24 21:07 30.72838 -84.28457 37949 ft 424 kts 322°
2026-04-24 21:08 30.77622 -84.32527 37950 ft 429 kts 322°
2026-04-24 21:08 30.82443 -84.36634 37944 ft 429 kts 322°
2026-04-24 21:09 30.87257 -84.40741 37948 ft 429 kts 322°
2026-04-24 21:09 30.92074 -84.44855 37951 ft 430 kts 322°
2026-04-24 21:10 30.96896 -84.48978 37937 ft 429 kts 322°
2026-04-24 21:10 31.01712 -84.53102 37934 ft 429 kts 322°
2026-04-24 21:11 31.06522 -84.57225 37932 ft 430 kts 322°
2026-04-24 21:11 31.11336 -84.61359 37936 ft 430 kts 322°
2026-04-24 21:12 31.16145 -84.65492 37941 ft 429 kts 322°
2026-04-24 21:12 31.20958 -84.69635 37946 ft 430 kts 322°
2026-04-24 21:13 31.25744 -84.73759 37940 ft 430 kts 322°
2026-04-24 21:13 31.30566 -84.77920 37933 ft 430 kts 322°
2026-04-24 21:14 31.35390 -84.82088 37937 ft 431 kts 322°
2026-04-24 21:14 31.40203 -84.86252 37933 ft 431 kts 322°
2026-04-24 21:15 31.45021 -84.90425 37937 ft 430 kts 322°
2026-04-24 21:15 31.49836 -84.94601 37940 ft 431 kts 322°
2026-04-24 21:16 31.54650 -84.98780 37943 ft 431 kts 322°
2026-04-24 21:16 31.59462 -85.02984 37949 ft 431 kts 322°
2026-04-24 21:17 31.64272 -85.07195 37952 ft 433 kts 322°
2026-04-24 21:17 31.69109 -85.11433 37947 ft 434 kts 322°
2026-04-24 21:18 31.73947 -85.15680 37948 ft 434 kts 322°
2026-04-24 21:18 31.78756 -85.19905 37936 ft 434 kts 322°
2026-04-24 21:19 31.83593 -85.24161 37938 ft 435 kts 322°
2026-04-24 21:19 31.88435 -85.28428 37937 ft 434 kts 322°
2026-04-24 21:20 31.95693 -85.34834 37935 ft 434 kts 322°
2026-04-24 21:21 32.00528 -85.39109 37942 ft 435 kts 322°
2026-04-24 21:21 32.05371 -85.43395 37937 ft 435 kts 322°
2026-04-24 21:22 32.10229 -85.47702 37942 ft 438 kts 322°
2026-04-24 21:22 32.15095 -85.52022 37937 ft 437 kts 322°
2026-04-24 21:23 32.19958 -85.56344 37934 ft 437 kts 322°
2026-04-24 21:23 32.24821 -85.60673 37935 ft 438 kts 322°
2026-04-24 21:24 32.29677 -85.65001 37936 ft 437 kts 322°
2026-04-24 21:24 32.34503 -85.69309 37930 ft 437 kts 322°
2026-04-24 21:25 32.39353 -85.73644 37930 ft 437 kts 322°
2026-04-24 21:25 32.44206 -85.77988 37927 ft 437 kts 322°
2026-04-24 21:26 32.49057 -85.82335 37925 ft 437 kts 322°
2026-04-24 21:26 32.53902 -85.86684 37924 ft 437 kts 322°
2026-04-24 21:27 32.58753 -85.91044 37922 ft 437 kts 322°
2026-04-24 21:27 32.63597 -85.95404 37922 ft 437 kts 322°
2026-04-24 21:28 32.68439 -85.99767 37923 ft 437 kts 322°
2026-04-24 21:28 32.73274 -86.04131 37925 ft 437 kts 322°
2026-04-24 21:29 32.78110 -86.08501 37924 ft 437 kts 322°
2026-04-24 21:29 32.82951 -86.12883 37923 ft 437 kts 322°
2026-04-24 21:30 32.87791 -86.17270 37928 ft 438 kts 322°
2026-04-24 21:30 32.92609 -86.21643 37922 ft 440 kts 321°
2026-04-24 21:31 32.97505 -86.26093 37924 ft 440 kts 321°
2026-04-24 21:31 33.02334 -86.30488 37922 ft 440 kts 321°
2026-04-24 21:32 33.07199 -86.34922 37940 ft 440 kts 321°
2026-04-24 21:32 33.12056 -86.39356 37949 ft 440 kts 321°
2026-04-24 21:33 33.16920 -86.43802 37948 ft 441 kts 321°
2026-04-24 21:33 33.21787 -86.48257 37933 ft 440 kts 321°
2026-04-24 21:34 33.26653 -86.52718 37937 ft 441 kts 321°
2026-04-24 21:34 33.31512 -86.57179 37921 ft 441 kts 321°
2026-04-24 21:35 33.36390 -86.61663 37934 ft 443 kts 321°
2026-04-24 21:35 33.41277 -86.66163 37937 ft 443 kts 321°
2026-04-24 21:36 33.46154 -86.70660 37942 ft 443 kts 321°
2026-04-24 21:36 33.51035 -86.75166 37946 ft 443 kts 321°
2026-04-24 21:37 33.55879 -86.79643 37941 ft 443 kts 321°
2026-04-24 21:37 33.60758 -86.84160 37943 ft 443 kts 321°
2026-04-24 21:38 33.65605 -86.88654 37943 ft 443 kts 321°
2026-04-24 21:38 33.70736 -86.92756 37946 ft 444 kts 325°
2026-04-24 21:39 33.75911 -86.96817 37903 ft 446 kts 325°
2026-04-24 21:39 33.81099 -87.00926 37908 ft 447 kts 325°
2026-04-24 21:40 33.86286 -87.05040 37912 ft 447 kts 325°
2026-04-24 21:40 33.91471 -87.09161 37916 ft 447 kts 325°
2026-04-24 21:41 33.96660 -87.13290 37895 ft 447 kts 324°
2026-04-24 21:41 34.01849 -87.17419 37900 ft 447 kts 325°
2026-04-24 21:42 34.07045 -87.21533 37914 ft 447 kts 325°
2026-04-24 21:42 34.12213 -87.25633 37905 ft 447 kts 325°
2026-04-24 21:43 34.17441 -87.29786 37901 ft 447 kts 325°
2026-04-24 21:43 34.21760 -87.33223 37883 ft 448 kts 325°
2026-04-24 21:44 34.27822 -87.38054 37896 ft 450 kts 325°
2026-04-24 21:44 34.32196 -87.41544 37889 ft 449 kts 325°
2026-04-24 21:45 34.37386 -87.45691 37887 ft 449 kts 324°
2026-04-24 21:45 34.42607 -87.49870 37891 ft 450 kts 325°
2026-04-24 21:46 34.47835 -87.54061 37894 ft 452 kts 325°
2026-04-24 21:46 34.53102 -87.58290 37896 ft 454 kts 324°
2026-04-24 21:47 34.58367 -87.62523 37897 ft 454 kts 325°
2026-04-24 21:47 34.63602 -87.66739 37900 ft 454 kts 324°
2026-04-24 21:48 34.68873 -87.70990 37905 ft 454 kts 324°
2026-04-24 21:48 34.74141 -87.75245 37910 ft 457 kts 324°
2026-04-24 21:49 34.79447 -87.79537 37900 ft 458 kts 324°
2026-04-24 21:49 34.84747 -87.83831 37897 ft 457 kts 324°
2026-04-24 21:50 34.90045 -87.88131 37904 ft 457 kts 324°
2026-04-24 21:50 34.95340 -87.92435 37897 ft 458 kts 324°
2026-04-24 21:51 35.00646 -87.96754 37900 ft 458 kts 324°
2026-04-24 21:51 35.05951 -88.01079 37893 ft 458 kts 324°
2026-04-24 21:52 35.11252 -88.05409 37896 ft 458 kts 324°
2026-04-24 21:52 35.16551 -88.09743 37897 ft 458 kts 323°
2026-04-24 21:53 35.21814 -88.14055 37902 ft 458 kts 323°
2026-04-24 21:53 35.27102 -88.18395 37902 ft 457 kts 322°
2026-04-24 21:54 35.32375 -88.22728 37897 ft 457 kts 322°
2026-04-24 21:54 35.37651 -88.27071 37898 ft 457 kts 322°
2026-04-24 21:55 35.42920 -88.31416 37889 ft 457 kts 322°
2026-04-24 21:55 35.48190 -88.35767 37890 ft 457 kts 322°
2026-04-24 21:56 35.53455 -88.40121 37890 ft 455 kts 322°
2026-04-24 21:56 35.58698 -88.44470 37892 ft 454 kts 322°
2026-04-24 21:57 35.63934 -88.48820 37893 ft 454 kts 322°
2026-04-24 21:57 35.69168 -88.53177 37899 ft 454 kts 322°
2026-04-24 21:58 35.74396 -88.57534 37900 ft 454 kts 322°
2026-04-24 21:58 35.79613 -88.61889 37901 ft 453 kts 321°
2026-04-24 21:59 35.84797 -88.66225 37901 ft 453 kts 321°
2026-04-24 21:59 35.87406 -88.68409 37889 ft 453 kts 321°
2026-04-24 22:00 35.91241 -88.71624 37887 ft 453 kts 321°
2026-04-24 22:00 35.96456 -88.76000 37888 ft 453 kts 321°
2026-04-24 22:01 36.01665 -88.80378 37891 ft 453 kts 321°
2026-04-24 22:01 36.02543 -88.81117 37889 ft 453 kts 321°
2026-04-24 22:02 36.03748 -88.82131 37887 ft 453 kts 321°
2026-04-24 22:02 36.08955 -88.86518 37880 ft 453 kts 321°
2026-04-24 22:03 36.14184 -88.90931 37877 ft 456 kts 321°
2026-04-24 22:03 36.19414 -88.95352 37863 ft 455 kts 321°
2026-04-24 22:04 36.24649 -88.99783 37871 ft 455 kts 321°
2026-04-24 22:04 36.29982 -89.04055 37840 ft 460 kts 330°
2026-04-24 22:05 36.35831 -89.07346 37868 ft 462 kts 330°
2026-04-24 22:05 36.41677 -89.10669 37874 ft 462 kts 330°
2026-04-24 22:06 36.47521 -89.13990 37874 ft 462 kts 330°
2026-04-24 22:06 36.53337 -89.17300 37875 ft 463 kts 330°
2026-04-24 22:07 36.59195 -89.20640 37874 ft 463 kts 330°
2026-04-24 22:07 36.65051 -89.23983 37883 ft 463 kts 329°
2026-04-24 22:08 36.70953 -89.27360 37871 ft 469 kts 329°
2026-04-24 22:08 36.76884 -89.30758 37872 ft 468 kts 328°
2026-04-24 22:09 36.82801 -89.34155 37864 ft 468 kts 328°
2026-04-24 22:09 36.88718 -89.37556 37220 ft 469 kts 329°
2026-04-24 22:09 36.91725 -89.39289 35976 ft 482 kts 329°
2026-04-24 22:10 36.94758 -89.41035 35428 ft 477 kts 329°
2026-04-24 22:10 36.97748 -89.42759 35060 ft 469 kts 329°
2026-04-24 22:10 37.00692 -89.44458 34624 ft 463 kts 329°
2026-04-24 22:10 37.03611 -89.46144 34067 ft 461 kts 329°
2026-04-24 22:11 37.06522 -89.47826 33408 ft 461 kts 329°
2026-04-24 22:11 37.09427 -89.49509 32745 ft 460 kts 329°
2026-04-24 22:11 37.12321 -89.51185 32202 ft 456 kts 329°
2026-04-24 22:11 37.15190 -89.52848 31757 ft 451 kts 329°
2026-04-24 22:12 37.18021 -89.54491 31282 ft 447 kts 329°
2026-04-24 22:12 37.20832 -89.56123 30769 ft 444 kts 330°
2026-04-24 22:12 37.23649 -89.57701 30223 ft 444 kts 331°
2026-04-24 22:12 37.26485 -89.59234 29599 ft 443 kts 331°
2026-04-24 22:13 37.29261 -89.60746 29062 ft 439 kts 331°
2026-04-24 22:13 37.32048 -89.62268 28566 ft 434 kts 331°
2026-04-24 22:13 37.34805 -89.63776 28073 ft 430 kts 331°
2026-04-24 22:13 37.37535 -89.65270 27534 ft 427 kts 331°
2026-04-24 22:14 37.40267 -89.66767 26810 ft 429 kts 331°
2026-04-24 22:14 37.43004 -89.68268 26095 ft 430 kts 331°
2026-04-24 22:14 37.45750 -89.69775 25397 ft 431 kts 331°
2026-04-24 22:14 37.48507 -89.71289 24690 ft 432 kts 331°
2026-04-24 22:15 37.51261 -89.72802 23957 ft 433 kts 331°
2026-04-24 22:15 37.54029 -89.74324 23176 ft 434 kts 331°
2026-04-24 22:15 37.56794 -89.75842 22449 ft 431 kts 332°
2026-04-24 22:15 37.59526 -89.77344 21971 ft 423 kts 331°
2026-04-24 22:16 37.62200 -89.78815 21496 ft 416 kts 331°
2026-04-24 22:16 37.64838 -89.80267 21008 ft 409 kts 331°
2026-04-24 22:16 37.67432 -89.81696 20522 ft 404 kts 331°
2026-04-24 22:16 37.69992 -89.83108 20062 ft 399 kts 331°
2026-04-24 22:17 37.72484 -89.84482 19614 ft 394 kts 332°
2026-04-24 22:17 37.74984 -89.85862 19145 ft 390 kts 332°
2026-04-24 22:17 37.77457 -89.87230 18703 ft 385 kts 332°
2026-04-24 22:17 37.79902 -89.88582 18261 ft 382 kts 332°
2026-04-24 22:18 37.82328 -89.89924 17772 ft 378 kts 332°
2026-04-24 22:18 37.84723 -89.91251 17318 ft 374 kts 332°
2026-04-24 22:18 37.87094 -89.92547 16856 ft 370 kts 332°
2026-04-24 22:18 37.89456 -89.93814 16441 ft 366 kts 332°
2026-04-24 22:19 37.91784 -89.95067 16039 ft 361 kts 332°
2026-04-24 22:19 37.94086 -89.96309 15631 ft 357 kts 332°
2026-04-24 22:19 37.96354 -89.97582 15191 ft 355 kts 331°
2026-04-24 22:19 37.98603 -89.98851 14804 ft 352 kts 332°
2026-04-24 22:20 38.00827 -90.00103 14423 ft 349 kts 332°
2026-04-24 22:20 38.03036 -90.01349 14018 ft 346 kts 332°
2026-04-24 22:20 38.05227 -90.02585 13628 ft 344 kts 332°
2026-04-24 22:20 38.07406 -90.03814 13192 ft 341 kts 333°
2026-04-24 22:21 38.09562 -90.05030 12836 ft 337 kts 333°
2026-04-24 22:21 38.11671 -90.06221 12649 ft 327 kts 333°
2026-04-24 22:21 38.13851 -90.07049 12108 ft 334 kts 351°
2026-04-24 22:21 38.16203 -90.07287 11351 ft 343 kts 352°
2026-04-24 22:22 38.18609 -90.07543 10693 ft 349 kts 353°
2026-04-24 22:22 38.21008 -90.07806 10351 ft 343 kts 353°
2026-04-24 22:22 38.23356 -90.08065 10099 ft 335 kts 353°
2026-04-24 22:22 38.25648 -90.08319 9825 ft 327 kts 353°
2026-04-24 22:23 38.27870 -90.08567 9520 ft 322 kts 353°
2026-04-24 22:23 38.30085 -90.08812 9185 ft 317 kts 353°
2026-04-24 22:23 38.32234 -90.09050 8875 ft 302 kts 353°
2026-04-24 22:23 38.34270 -90.09276 8642 ft 285 kts 353°
2026-04-24 22:24 38.36186 -90.09500 8475 ft 269 kts 350°
2026-04-24 22:24 38.38016 -90.09940 8217 ft 267 kts 346°
2026-04-24 22:24 38.39809 -90.10402 7913 ft 265 kts 346°
2026-04-24 22:24 38.41610 -90.10859 7645 ft 265 kts 346°
2026-04-24 22:25 38.43419 -90.11315 7344 ft 265 kts 346°
2026-04-24 22:25 38.45223 -90.11767 7042 ft 264 kts 347°
2026-04-24 22:25 38.47023 -90.12216 6732 ft 263 kts 346°
2026-04-24 22:25 38.48818 -90.12665 6431 ft 262 kts 346°
2026-04-24 22:26 38.50601 -90.13111 6117 ft 258 kts 346°
2026-04-24 22:26 38.52332 -90.13543 5804 ft 249 kts 346°
2026-04-24 22:26 38.53995 -90.13959 5509 ft 240 kts 346°
2026-04-24 22:26 38.55601 -90.14361 5234 ft 231 kts 346°
2026-04-24 22:27 38.57147 -90.14747 4987 ft 221 kts 346°
2026-04-24 22:27 38.58628 -90.15113 4713 ft 213 kts 346°
2026-04-24 22:27 38.60083 -90.15476 4486 ft 214 kts 346°
2026-04-24 22:27 38.61553 -90.15841 4236 ft 216 kts 346°
2026-04-24 22:28 38.63004 -90.16200 3981 ft 215 kts 346°
2026-04-24 22:28 38.64465 -90.16595 3728 ft 212 kts 338°
2026-04-24 22:28 38.65623 -90.17650 3508 ft 203 kts 307°
2026-04-24 22:28 38.66417 -90.19117 3321 ft 199 kts 303°
2026-04-24 22:29 38.67936 -90.22062 2822 ft 198 kts 302°
2026-04-24 22:29 38.68684 -90.23538 2590 ft 197 kts 302°
2026-04-24 22:29 38.69426 -90.25016 2323 ft 199 kts 302°
2026-04-24 22:30 38.70182 -90.26530 2000 ft 203 kts 302°
2026-04-24 22:30 38.70933 -90.28037 1702 ft 194 kts 303°
2026-04-24 22:30 38.71397 -90.28974 1472 ft 183 kts 302°
2026-04-24 22:30 38.72033 -90.30255 1328 ft 157 kts 302°
2026-04-24 22:31 38.72591 -90.31373 1026 ft 145 kts 302°
2026-04-24 22:31 38.73129 -90.32479 805 ft 147 kts 302°
2026-04-24 22:31 38.73677 -90.33584 686 ft 148 kts 302°
2026-04-24 22:31 38.74235 -90.34711 600 ft 142 kts 302°
2026-04-24 22:32 38.74656 -90.35576 584 ft 83 kts 302°
2026-04-24 22:32 38.74868 -90.36003 573 ft 40 kts 304°
2026-04-24 22:32 38.74875 -90.36111 568 ft 11 kts 222°
2026-04-24 22:32 38.74804 -90.36173 575 ft 14 kts 214°
2026-04-24 22:33 38.74786 -90.36219 565 ft 11 kts 285°
2026-04-24 22:33 38.74803 -90.36342 564 ft 12 kts 226°
2026-04-24 22:33 38.74699 -90.36427 564 ft 25 kts 212°
2026-04-24 22:33 38.74599 -90.36507 565 ft 0 kts 211°
2026-04-24 22:34 38.74596 -90.36509 565 ft 2 kts 211°
2026-04-24 22:34 38.74547 -90.36483 561 ft 12 kts 129°
2026-04-24 22:34 38.74509 -90.36412 567 ft 12 kts 123°
2026-04-24 22:34 38.74441 -90.36338 570 ft 15 kts 180°
2026-04-24 22:35 38.74355 -90.36240 575 ft 19 kts 124°
2026-04-24 22:35 38.74284 -90.36096 577 ft 19 kts 121°
2026-04-24 22:35 38.74212 -90.35948 581 ft 21 kts 123°
2026-04-24 22:35 38.74159 -90.35853 577 ft 7 kts 118°
2026-04-24 22:36 38.74123 -90.35800 577 ft 6 kts 165°
2026-04-24 22:36 38.74041 -90.35850 580 ft 21 kts 214°
2026-04-24 22:36 38.73925 -90.35960 574 ft 10 kts 236°
2026-04-24 22:36 38.73889 -90.35997 574 ft 1 kts 207°
2026-04-24 22:37 38.73878 -90.36004 578 ft 2 kts 207°
2026-04-24 22:37 38.73874 -90.36007 574 ft 0 kts 207°